Total_Precipitation_Accumulation
0.70 0.48 0.52 0.48 0.42 0.38 0.38 0.44 0.53 0.50 0.48 0.50 0.54 0.58 0.52 0.53 0.52 0.52 0.60 0.69 0.82 0.98 1.10 1.20 1.34 1.48 1.53 1.67 1.52 1.32 1.31 1.43 1.55 1.87 2.32 2.61 2.67 2.60 2.70 2.69 2.61 2.24 2.19
0.51 0.42 0.48 0.46 0.46 0.44 0.44 0.50 0.47 0.42 0.44 0.45 0.46 0.56 0.55 0.55 0.55 0.57 0.59 0.73 0.92 1.14 1.19 1.24 1.30 1.54 1.55 1.50 1.48 1.33 1.22 1.32 1.45 1.85 2.42 2.96 3.09 3.00 2.96 2.95 2.67 2.46 2.22
0.41 0.42 0.46 0.51 0.50 0.50 0.47 0.50 0.45 0.42 0.47 0.51 0.49 0.55 0.61 0.57 0.58 0.57 0.64 0.78 1.04 1.21 1.23 1.31 1.43 1.56 1.58 1.43 1.38 1.35 1.36 1.47 1.60 1.98 2.61 2.82 2.98 3.20 3.27 3.09 2.59 2.31 2.01
0.39 0.44 0.46 0.57 0.60 0.56 0.51 0.52 0.51 0.49 0.50 0.56 0.61 0.61 0.68 0.63 0.62 0.66 0.73 0.83 1.08 1.26 1.43 1.47 1.51 1.59 1.57 1.40 1.34 1.39 1.57 1.71 1.89 2.19 2.51 2.46 2.46 3.01 3.05 2.78 2.38 2.17 2.00
0.46 0.49 0.52 0.58 0.65 0.71 0.69 0.68 0.68 0.63 0.61 0.64 0.70 0.75 0.83 0.79 0.72 0.75 0.81 0.89 1.08 1.20 1.46 1.72 1.72 1.72 1.65 1.50 1.44 1.53 1.72 1.85 2.11 2.28 2.47 2.68 2.80 3.08 2.85 2.59 2.27 2.16 2.14
0.59 0.62 0.56 0.74 0.85 0.90 0.88 0.83 0.82 0.78 0.75 0.78 0.82 0.81 0.87 0.88 0.86 0.92 0.96 1.03 1.20 1.29 1.42 1.68 1.92 2.01 1.85 1.90 1.72 1.77 1.96 2.07 2.08 2.17 2.61 3.09 3.06 3.13 2.88 2.61 2.33 2.33 2.22
0.87 0.86 0.71 0.77 0.80 0.88 0.90 0.93 0.90 0.87 0.85 0.91 0.93 0.88 0.90 0.87 0.88 1.04 1.21 1.24 1.33 1.42 1.46 1.56 1.75 1.94 1.95 2.18 2.18 2.07 2.25 2.27 2.11 2.33 2.74 3.01 3.02 3.09 2.99 2.89 2.61 2.37 2.17
1.04 1.00 0.78 0.80 0.79 0.92 0.98 1.01 0.98 0.96 0.97 1.03 1.08 1.03 0.98 0.94 0.98 1.14 1.33 1.45 1.47 1.43 1.41 1.55 1.66 1.89 2.19 2.37 2.45 2.36 2.35 2.39 2.07 2.27 2.68 2.85 2.71 2.84 3.11 3.08 2.80 2.48 2.23
1.09 1.14 0.98 0.99 0.98 1.03 1.11 1.13 1.21 1.15 1.15 1.18 1.17 1.26 1.15 1.10 1.21 1.32 1.39 1.49 1.53 1.48 1.38 1.40 1.58 1.65 2.01 2.19 2.29 2.31 2.30 2.49 2.29 2.27 2.39 2.91 2.73 2.95 3.24 3.07 2.80 2.54 2.30
1.79 1.83 1.61 1.49 1.44 1.35 1.29 1.21 1.31 1.30 1.32 1.42 1.35 1.36 1.37 1.33 1.35 1.47 1.45 1.53 1.51 1.43 1.39 1.39 1.54 1.61 1.72 1.76 1.71 1.85 1.99 2.08 2.12 2.15 2.51 2.71 2.83 3.40 3.59 3.29 3.01 2.78 2.55
2.56 2.63 2.24 1.81 1.67 1.89 1.74 1.41 1.56 1.48 1.44 1.49 1.48 1.48 1.55 1.78 1.94 1.97 1.74 1.89 1.82 1.68 1.57 1.56 1.59 1.60 1.58 1.64 1.67 1.74 1.71 1.45 1.89 2.35 2.52 2.82 2.92 3.46 3.81 3.45 3.18 3.01 2.72
2.86 2.87 2.56 2.06 2.17 2.41 2.12 2.03 1.98 1.77 1.70 1.63 1.75 1.76 1.90 2.41 2.57 2.23 2.32 2.27 2.25 2.12 1.97 1.92 1.89 1.75 1.59 1.51 1.68 1.73 1.40 1.29 1.71 2.31 2.65 3.03 3.30 3.61 3.68 3.40 3.28 3.24 3.01
2.97 2.69 2.36 2.28 2.35 2.61 2.62 2.52 2.44 2.42 2.42 2.42 2.47 2.47 2.64 2.74 2.59 2.45 2.74 2.59 2.54 2.44 2.36 2.38 2.19 1.87 1.79 1.80 1.78 1.68 1.49 1.51 1.80 2.07 2.53 3.03 3.34 3.68 3.89 3.56 3.36 3.41 3.23
2.90 2.83 2.77 2.80 2.66 2.90 3.31 3.32 3.14 3.07 3.01 2.93 2.85 2.70 3.05 3.19 3.05 3.04 3.12 3.06 3.21 3.19 3.16 2.81 2.55 2.29 2.16 1.93 1.75 1.71 1.76 1.80 1.95 2.29 2.71 2.92 3.19 3.48 3.84 3.86 3.70 3.63 3.41
3.19 3.10 3.06 3.17 3.17 3.27 3.73 3.98 3.73 3.61 3.43 3.29 3.17 3.17 3.25 3.25 3.25 3.39 3.34 3.51 3.50 3.43 3.28 3.03 2.62 2.57 2.37 2.18 2.00 1.86 1.99 2.15 2.22 2.51 2.72 2.86 2.98 3.23 3.75 4.18 4.12 4.01 3.78
3.48 3.27 3.22 3.28 3.28 3.37 3.61 3.86 3.92 3.86 3.93 3.81 3.52 3.46 3.46 3.47 3.54 3.57 3.57 3.52 3.37 3.22 3.29 3.21 2.99 2.90 2.68 2.52 2.29 2.23 2.24 2.23 2.36 2.46 2.66 2.91 2.74 2.81 3.38 3.99 4.33 4.29 4.21
3.76 3.72 3.57 3.57 3.70 3.65 3.67 3.74 3.71 3.75 4.04 4.05 3.98 3.93 3.69 3.60 3.66 3.70 3.73 3.61 3.44 3.38 3.45 3.36 3.26 3.15 2.98 2.84 2.72 2.62 2.59 2.46 2.41 2.50 2.72 2.94 2.90 2.92 3.15 3.56 3.97 4.21 4.35
4.20 4.15 3.77 3.45 3.74 3.84 3.88 3.90 3.93 3.96 4.17 4.14 4.00 4.13 3.91 3.93 3.82 3.77 3.61 3.42 3.36 3.35 3.57 3.61 3.50 3.49 3.32 3.20 3.18 2.89 2.82 2.80 2.59 2.66 2.75 2.83 3.16 3.25 3.31 3.34 3.55 3.90 4.22
4.71 4.48 3.97 3.67 3.74 3.91 3.93 4.07 4.30 4.47 4.46 4.32 4.14 4.21 4.09 4.13 4.04 3.92 3.93 3.87 3.71 3.77 3.78 3.49 3.59 3.68 3.70 3.63 3.29 3.13 2.98 2.90 2.77 2.66 2.65 2.66 2.96 3.24 3.27 3.32 3.48 3.64 3.95
4.81 4.72 4.28 4.04 4.23 4.23 4.12 4.20 4.36 4.50 4.52 4.62 4.62 4.56 4.43 4.39 4.46 4.58 4.55 4.45 4.26 4.16 4.12 4.19 4.19 3.91 3.72 3.72 3.41 3.31 3.16 2.88 2.75 2.70 2.54 2.55 2.71 2.69 2.80 2.93 3.28 3.35 3.55
4.05 4.15 4.32 4.33 4.38 4.40 4.38 4.39 4.59 4.79 4.82 4.80 4.93 4.96 4.84 4.78 4.94 5.25 5.26 5.10 4.78 4.51 4.35 4.37 4.39 4.16 3.86 3.70 3.77 3.61 3.24 2.89 2.78 2.67 2.63 2.61 2.45 2.45 2.63 2.82 2.92 2.91 3.01
3.85 4.05 4.29 4.30 4.44 4.69 5.07 5.58 5.88 6.01 5.88 5.70 5.59 5.53 5.41 5.32 5.44 5.53 5.60 5.25 4.89 4.74 4.49 4.28 4.27 4.12 3.83 3.77 3.86 3.95 3.54 3.25 2.72 2.34 2.43 2.44 2.41 2.44 2.45 2.44 2.55 2.64 2.65
3.46 3.81 4.08 4.41 4.80 5.29 5.96 6.77 7.11 6.88 6.43 6.19 5.89 5.83 5.61 5.39 5.36 5.50 5.24 4.98 4.78 4.60 4.41 4.24 4.27 4.23 3.86 3.72 3.85 4.10 3.80 3.41 3.01 2.65 2.37 2.28 2.37 2.42 2.42 2.45 2.40 2.48 2.51
3.09 3.56 4.03 4.56 5.15 5.83 6.46 6.93 7.17 7.06 6.79 6.46 5.99 5.60 5.23 4.91 4.71 4.63 4.54 4.31 4.21 4.10 3.96 3.78 3.85 3.95 3.85 3.58 3.52 3.36 3.31 3.19 3.14 2.85 2.56 2.35 2.32 2.37 2.39 2.32 2.32 2.40 2.46
3.01 3.49 3.97 4.46 5.18 5.68 6.23 6.66 6.94 6.96 6.85 6.46 5.75 5.09 4.65 4.29 4.03 3.76 3.58 3.52 3.50 3.47 3.29 3.13 3.17 3.23 3.20 3.16 3.14 2.99 2.98 2.96 2.89 2.76 2.65 2.56 2.47 2.30 2.24 2.24 2.26 2.25 2.32
2.94 3.45 3.81 4.15 4.88 5.58 6.09 6.46 6.76 6.77 6.58 5.94 5.21 4.62 4.21 3.88 3.62 3.35 3.20 3.10 3.06 2.97 2.81 2.69 2.68 2.69 2.72 2.75 2.86 2.88 2.80 2.73 2.65 2.68 2.51 2.41 2.39 2.25 2.18 2.14 2.12 2.16 2.25